[[{"header":{"parameterUnit":"m.s-1","parameterCategory":1,"la1":30.2992,"la2":30.254,"lo1":-89.0895,"lo2":-89.0443,"dy":0.0025,"dx":0.0025,"nx":19,"ny":19,"refTime":"2026-04-15T09:00:00:Z","depth":0,"parameterNumber":2,"parameterNumberName":"U-component_of_WINDS"},"data":[0,0,0,-0.5516,-0.5514,-0.5421,-0.542,-0.5321,-0.532,0,0,0,0,0,0,0,0,0,0,0,-0.5556,-0.5555,-0.5516,-0.5514,-0.5421,-0.542,-0.5321,-0.532,0,0,0,0,0,0,0,0,0,0,0,-0.5556,-0.5556,-0.5555,-0.5514,-0.5421,-0.542,-0.5321,-0.5385,0,0,0,0,0,0,0,0,0,0,-0.5472,-0.552,-0.5556,-0.5555,-0.5513,-0.5421,-0.542,-0.5387,-0.5381,-0.5372,0,-0.5367,0,-0.5342,-0.5315,-0.5315,0,0,0,-0.5505,-0.5526,-0.549,-0.5555,-0.5513,-0.5421,-0.546,-0.5383,-0.5376,-0.5363,-0.5365,-0.5361,-0.5341,-0.5314,-0.5314,-0.5294,-0.5294,0,0,-0.551,-0.5545,-0.5495,-0.5486,-0.5501,-0.5463,-0.5458,-0.5379,-0.5383,-0.5365,-0.5358,-0.5339,-0.5314,-0.5313,-0.5293,-0.5294,0,0,0,-0.5531,-0.5549,-0.5515,-0.549,-0.5472,-0.5461,-0.5454,-0.5387,-0.5373,-0.5357,-0.5338,-0.5313,-0.5312,-0.5293,-0.5294,-0.5344,0,0,0,-0.5534,-0.5561,-0.5517,-0.5538,-0.5474,-0.5428,-0.5465,-0.5378,-0.5368,-0.5338,-0.5313,-0.5312,-0.5292,-0.5293,-0.5341,-0.5361,0,0,0,-0.5558,-0.5564,-0.5555,-0.554,-0.5501,-0.5428,-0.5409,-0.5375,-0.5357,-0.5315,-0.5311,-0.5292,-0.5293,-0.5339,-0.5358,-0.5366,0,0,0,-0.5593,-0.56,-0.5556,-0.5556,-0.5502,-0.546,-0.541,-0.5377,-0.5347,-0.5313,-0.5293,-0.5293,-0.5339,-0.5356,-0.5365,-0.538,-0.539,0,0,-0.5621,-0.5604,-0.5602,-0.556,-0.5535,-0.5472,-0.5454,-0.5393,-0.5357,-0.5317,-0.5316,-0.5342,-0.5357,-0.5366,-0.5432,-0.544,0,0,0,-0.5622,-0.5621,-0.5607,-0.558,-0.5534,-0.5497,-0.5435,-0.5413,-0.5377,-0.5344,-0.5346,-0.5354,-0.5358,-0.5364,-0.5371,-0.5372,-0.5298,-0.5298,-0.5297,-0.5711,-0.5665,-0.5658,-0.5602,-0.5577,-0.5514,-0.549,-0.5449,-0.5409,-0.5411,-0.5399,-0.5444,-0.5452,-0.5457,-0.5459,-0.5403,-0.5404,-0.5404,-0.5404,-0.5748,-0.5739,-0.5687,-0.5662,-0.5614,-0.5593,-0.5533,-0.5507,-0.548,-0.545,-0.545,-0.5421,-0.5467,-0.5467,-0.5407,-0.5407,-0.5406,-0.5406,-0.5406,-0.5801,-0.5788,-0.5762,-0.5719,-0.5692,-0.5634,-0.5612,-0.5569,-0.5528,-0.5529,-0.5512,-0.5511,-0.5505,-0.5524,-0.5524,-0.5524,-0.5524,-0.5525,-0.5525,-0.5866,-0.5834,-0.582,-0.5773,-0.5751,-0.5717,-0.5655,-0.5632,-0.5596,-0.5567,-0.5566,-0.5528,-0.548,-0.547,-0.5527,-0.5527,-0.5526,-0.5526,-0.5526,-0.592,-0.5901,-0.5879,-0.5857,-0.5799,-0.5776,-0.5722,-0.568,-0.5654,-0.5645,-0.5607,-0.5579,-0.5558,-0.5553,-0.5543,-0.5616,-0.5616,-0.5616,-0.5616,-0.5965,-0.5951,-0.5919,-0.5887,-0.585,-0.58,-0.5778,-0.5731,-0.568,-0.5662,-0.5645,-0.5629,-0.5625,-0.5607,-0.56,-0.5591,-0.5674,-0.5674,-0.5674,-0.5996,-0.5976,-0.5965,-0.5914,-0.5866,-0.5827,-0.5805,-0.5771,-0.5708,-0.5676,-0.5647,-0.5644,-0.5618,-0.5612,-0.5578,-0.5568,-0.555,0,0]},{"header":{"parameterUnit":"m.s-1","parameterCategory":1,"la1":30.2992,"la2":30.254,"lo1":-89.0895,"lo2":-89.0443,"dy":0.0025,"dx":0.0025,"nx":19,"ny":19,"refTime":"2026-04-15T09:00:00:Z","depth":0,"parameterNumber":3,"parameterNumberName":"V-component_of_WINDS"},"data":[0,0,0,4.5845,4.5845,4.5801,4.58,4.5746,4.5746,0,0,0,0,0,0,0,0,0,0,0,4.5862,4.5861,4.5845,4.5844,4.5801,4.58,4.5746,4.5746,0,0,0,0,0,0,0,0,0,0,0,4.5862,4.5861,4.5861,4.5844,4.5801,4.58,4.5746,4.5778,0,0,0,0,0,0,0,0,0,0,4.582,4.5839,4.5861,4.5861,4.5844,4.5801,4.58,4.578,4.5776,4.5767,0,4.5763,0,4.5754,4.5742,4.5742,0,0,0,4.5841,4.5842,4.5827,4.5861,4.5844,4.5801,4.5819,4.5778,4.5774,4.5763,4.5762,4.576,4.5753,4.5742,4.5742,4.5708,4.5708,0,0,4.5844,4.5855,4.583,4.5825,4.5835,4.5821,4.5818,4.5775,4.5774,4.5762,4.5758,4.5752,4.5742,4.5741,4.5708,4.5708,0,0,0,4.5853,4.5856,4.5843,4.5827,4.582,4.582,4.5817,4.5776,4.577,4.5758,4.5751,4.5741,4.5741,4.5708,4.5708,4.572,0,0,0,4.5854,4.5862,4.5844,4.585,4.5821,4.5797,4.5818,4.5773,4.5768,4.5751,4.5741,4.574,4.5708,4.5708,4.572,4.5723,0,0,0,4.5863,4.5863,4.5858,4.5851,4.5833,4.5798,4.579,4.5772,4.5764,4.5742,4.574,4.5708,4.5708,4.572,4.5723,4.5718,0,0,0,4.5875,4.5867,4.5858,4.5846,4.5834,4.5806,4.579,4.5769,4.5751,4.5741,4.5708,4.5708,4.5719,4.5722,4.5718,4.5717,4.5718,0,0,4.587,4.5867,4.5859,4.585,4.5828,4.5812,4.579,4.5762,4.5748,4.5722,4.5721,4.572,4.5723,4.5718,4.5717,4.5718,0,0,0,4.5861,4.5855,4.5847,4.5832,4.5813,4.5796,4.5771,4.576,4.5738,4.5738,4.5717,4.5718,4.5715,4.5714,4.5714,4.5711,4.5708,4.5708,4.5708,4.5869,4.5855,4.5841,4.5822,4.5807,4.5783,4.5769,4.5751,4.5738,4.5734,4.5725,4.5727,4.5726,4.5726,4.5723,4.5724,4.5724,4.5724,4.5724,4.586,4.585,4.5837,4.5819,4.5804,4.5787,4.5763,4.5755,4.5737,4.5731,4.5728,4.5724,4.5728,4.5724,4.5724,4.5724,4.5724,4.5724,4.5724,4.5864,4.5857,4.5847,4.5825,4.581,4.579,4.5774,4.5759,4.5745,4.5742,4.5732,4.5732,4.573,4.5739,4.5739,4.5739,4.5739,4.5739,4.5739,4.5871,4.586,4.5849,4.583,4.5819,4.5803,4.5779,4.5768,4.5751,4.5742,4.5741,4.573,4.5731,4.5732,4.5739,4.5739,4.5739,4.5739,4.5739,4.5868,4.5867,4.5851,4.5841,4.5817,4.5803,4.5786,4.5764,4.5752,4.5745,4.5734,4.5738,4.5732,4.5731,4.5732,4.5738,4.5738,4.5738,4.5738,4.587,4.5867,4.5848,4.5833,4.5817,4.58,4.5781,4.5763,4.5743,4.5735,4.5732,4.5732,4.5732,4.5725,4.5725,4.5725,4.5729,4.5729,4.5729,4.5868,4.5862,4.585,4.5834,4.5814,4.5798,4.578,4.5761,4.5738,4.5729,4.5728,4.5729,4.5728,4.5728,4.5718,4.5717,4.5717,0,0]}]]